FOX-1D (AO-92) (43137 NORAD) Tracking and Keplerian Element Data

This shows tracking and keplerian element data for the satellite.

Feedback or suggestion? Click here.




ElementValue
Catalog43137
NameFOX-1D (AO-92)
Epoch Orbit20598
Epoch Day269.02338364
Epoch Year2021
RAAN342.0116
Inclination97.3987
Eccentricity0.0007917
Argument of Perigee206.5517
Mean Anonmoly153.5316
Mean Motion15.25665914
Decay Rate3.707E-05
L11 43137U 18004AC 21269.02338364 .00003707 00000-0 14839-3 0 9995
L22 43137 97.3987 342.0116 0007917 206.5517 153.5316 15.25665914205982

Live tracking and technical data element details for FOX-1D (AO-92) (NORAD 43137). FOX-1D (AO-92) can be tracked NOW for your location showing map with azimuth and elevation plus other details from your city location.

Track the satellite on the map from your city or location and see movement details for azimuth, elevation, latitude, longitude, range, height, and movement on the map or in text.







IsCatalogInMostPopularTable: catalog: 43137, numindb: 2051
Update: records affected: 1



GetName: 43137 FOX-1D (AO-92)

Hit Count: updated at: Mon, 27 Sep 2021 00:06:15 GMT